Location: Dresden
(51.0483°N, 13.7137°E)
Time: 16:40:23
(UTC+01:00)

ISS - Pass Details

Date: 15 November 2017
Orbit: 402 x 407 km, 51.6° (Epoch: 19 November)

Event Time Altitude Azimuth Distance (km) Brightness Sun altitude
Exits shadow 04:55:28 29° 150° (SSE) 772 -2.2 -22.8°
Drops below altitude 10° 04:57:21 10° 131° (SE) 1,452 -0.4 -22.5°
Sets 04:59:28 0° 125° (SE) 2,309 0.9 -22.1°
